www.pogodaiklimat.ru

Погода и климат >> Архив погоды >> Аргентина >> Сан-Рафаэль


ПОГОДА в Сан-Рафаэле

  • Прогноз погоды в Сан-Рафаэле
  • Монитор погоды в Сан-Рафаэле

АРХИВ ПОГОДЫ в Сан-Рафаэле

Время (UTC), дата Ветер
(напр.,м/с)
 
Видим.   Явления Облачность Т
(С)
Тd
(С)
f
(%)
Тe
(С)
Тes
(С)
Комфортность P
(гПа)
Po
(гПа)
Тmin
(С)
Tmax
(С)
R
(мм)
R24
(мм)
S
(см)
21 17.05 В 5 20 км 1/0
[Cs]
+20.3 +9.4 50 +22 +22 комфорт 1007.3 922.1
00 18.05 Ю 5 20 км 6/6 1200 м
[Sc]
+15.6 +3.9 46 +15 +15 1012.0 925.8 +2.6 +22.5
03 18.05 Ю 4 9000 м слаб. дождь 10/10 900 м
[Sc]
+13.6 +6.3 61 +12 +12 1013.9 928.8
06 18.05 В 7 8000 м слаб. дождь 10/5 750 м
[Sc As op]
+10.0 +8.4 90 +6 +6 1017.1 931.8 5
09 18.05 В 2 8000 м слаб. дождь 10/4 750 м
[Sc As op]
+8.2 +7.0 92 +7 +7 1019.6 933.7
12 18.05 З 2 20 км в посл. час морось {дождь} 9/9 1200 м
[St]
+7.8 +7.0 95 +6 +6 1022.4 935.4 +7.7 +15.6 2
15 18.05 В 2 20 км 5/5 1200 м
[Sc]
+13.2 +5.4 59 +13 +16 1022.9 936.5
18 18.05 В 2 20 км 6/6 1200 м
[Sc]
+14.8 +4.4 50 +15 +17 1020.5 934.0
21 18.05 СВ 2 20 км ясно +13.8 +5.1 56 +13 +14 1020.6 933.7
00 19.05 З 2 20 км ясно +8.6 +5.6 81 +7 +7 1022.2 934.2 +7.8 +14.8
03 19.05 штиль 0 20 км ясно +5.2 +4.3 94 +4 +4 1021.6 934.1
06 19.05 ЮЗ 3 20 км 1/0
[Ci fib]
+4.6 +3.7 94 +1 +1 1020.6 933.3
09 19.05 З 4 20 км 1/0
[Ac As]
+4.6 +3.2 91 +1 +1 1019.8 932.4
12 19.05 З 2 20 км 4/4 1200 м
[Sc]
+4.6 +3.2 91 +2 +2 1021.2 932.9 +3.8 +8.6
15 19.05 С 2 20 км 3/0
[Ac As]
+13.8 +6.6 62 +14 +19 1019.4 932.1
18 19.05 СВ 5 20 км 4/0
[Ac As Ci fib]
+15.8 +5.8 51 +15 +17 1015.7 929.0
21 19.05 В 3 20 км 6/4 1200 м
[Sc Ac As Ci]
+14.8 +4.4 50 +14 +14 1015.5 928.6
00 20.05 Ю 1 20 км 6/0
[Ac As]
+11.6 +5.8 68 +12 +12 1017.0 929.4 +4.6 +16.7
03 20.05 ЮЗ 2 20 км 6/0
[Ac As]
+7.0 +3.6 79 +5 +5 1016.2 929.4
06 20.05 ЮЗ 2 20 км 9/9 600 м
[Sc]
+8.0 +4.2 77 +7 +7 1015.4 929.2
09 20.05 Ю 1 20 км 9/9 450 м
[Sc]
+8.8 +5.4 79 +8 +8 1013.9 927.8
12 20.05 Ю 7 20 км 10/10 300 м
[Sc]
+7.6 +0.9 62 +3 +3 1018.0 930.9 +5.6 +16.7
15 20.05 Ю 4 1000 м дождь туман 10/6 450 м
[Sc As op]
+6.2 +3.4 82 +2 +3 1021.6 933.3
18 20.05 Ю 5 2000 м дождь туман 10/6 150 м
[St As op]
+5.2 +4.1 93 0 +1 1021.9 933.6 9
21 20.05 Ю 5 5000 м слаб. дождь 10/6 150 м
[St As op]
+3.8 +2.8 93 -2 -2 1024.0 935.4
00 21.05 Ю 3 2000 м дождь 10/6 120 м
[Frnb As op]
+2.6 +2.4 99 -2 -2 1016.2 937.8 +2.6 +7.3 10
03 21.05 ЮЗ 2 2000 м дождь 10/6 120 м
[Frnb As op]
+1.2 +1.2 100 -3 -3 1029.4 939.4
06 21.05 Ю 1 1000 м снег {дождь} 10/6 120 м
[Frnb As op]
+0.8 +0.8 100 -1 -1 1030.5 940.2 10
09 21.05 штиль 0 1000 м снег 10/6 120 м
[Frnb As op]
-0.3 -0.3 100 -2 -2 1031.6 940.9
12 21.05 Ю 2 1000 м дождь {снег} туман 10/6 120 м
[Frnb As op]
+2.1 +1.9 99 -2 -2 1032.3 941.8 -0.3 +2.6 12 1
15 21.05 Ю 5 2000 м дождь туман 10/6 180 м
[Frnb As op]
+3.4 +2.9 97 -2 -2 1033.2 942.6
18 21.05 Ю 3 4000 м слаб. дождь туман 10/6 180 м
[St As op]
+3.8 +3.3 97 0 +1 1032.5 941.8 7
21 21.05 Ю 2 20 км {дождь} 8/1 1350 м
[Sc Ac As]
+4.3 +1.9 84 +2 +2 1031.4 940.8
00 22.05 ЮЗ 2 20 км {дождь} 5/0
[Ac As]
+2.8 +1.3 90 -0 -0 1031.5 941.0 +2.1 +5.0 1
03 22.05 ЮЗ 3 20 км 6/6 1200 м
[Sc]
+2.5 +1.2 91 -1 -1 1032.0 941.7
06 22.05 ЮЗ 2 20 км 6/6 1050 м
[Sc]
+2.0 +0.7 91 -1 -1 1031.4 941.0
09 22.05 ЮЗ 2 20 км 4/4 1050 м
[Sc]
+1.6 0.0 89 -1 -1 1029.8 939.7
12 22.05 З 2 20 км 1/0
[Ac As]
+0.8 -1.4 85 -2 -2 1030.4 939.8 +0.6 +2.8 8
15 22.05 Ю 2 20 км 3/0
[Ac As]
+9.2 -0.3 51 +8 +13 1028.8 939.6
18 22.05 штиль 0 20 км ясно +12.2 -1.0 40 +12 +20 1025.6 937.0
21 22.05 В 1 20 км ясно +12.5 +0.5 44 +13 +13 1024.6 936.2
00 23.05 З 3 20 км ясно +5.0 -0.7 67 +2 +2 1026.0 936.2 +0.8 +13.0
03 23.05 ЮЗ 3 20 км ясно +2.8 +0.2 83 -1 -1 1024.9 936.1
06 23.05 ЮЗ 4 20 км ясно +3.4 -1.1 72 -1 -1 1022.7 934.6
09 23.05 ЮЗ 4 20 км ясно +2.8 -0.9 77 -2 -2 1021.6 933.6
12 23.05 З 3 20 км ясно +5.0 -5.5 47 +2 +2 1022.9 934.0 +2.6 +5.0
15 23.05 ЮЗ 3 20 км ясно +15.6 -3.5 27 +15 +20 1021.9 934.2
18 23.05 В 1 20 км ясно +18.8 -1.0 26 +20 +27 1019.1 932.2
21 23.05 ЮВ 1 20 км ясно +17.0 +0.6 33 +18 +18 1018.7 931.6
00 24.05 З 4 20 км ясно +9.4 +0.9 55 +7 +7 1020.0 932.0 +5.0 +19.2
03 24.05 З 4 20 км ясно +7.0 -0.5 59 +4 +4 1017.8 931.2
06 24.05 З 4 20 км ясно +8.0 -2.4 48 +6 +6 1015.8 930.0
09 24.05 З 3 20 км 4/0
[Cs]
+6.8 -1.4 56 +4 +4 1014.6 928.4
12 24.05 ЮЗ 2 20 км 8/0
[Ac As]
+7.8 -1.3 53 +6 +6 1015.6 928.4 +6.6 +9.5
15 24.05 З 2 20 км 8/0
[Ac und Cs]
+16.8 -0.4 31 +17 +21 1014.5 928.4
18 24.05 В 2 20 км 8/0
[Ac und Cs]
+19.5 +2.0 31 +21 +24 комфорт 1011.5 926.1

 

Местоположение метеостанции Сан-Рафаэль (Аргентина): широта -34.58 долгота -68.40 высота над уровнем моря 748 м.

В архиве по умолчанию представлена погода в Сан-Рафаэле за последнюю неделю. Архивные данные за месяц целиком и за предыдущие месяцы, начиная с января 2011 года, Вы можете получить, выбрав интересующий диапазон дат из раскрывающегося списка и нажав кнопку "Ввод!".


*Определитесь, кто Вы:
робот инопланетянин человек

Внимание! Время в таблицах - всемирное. Для получения местного времени необходимо прибавить поправку, которая равна -3 ч.

Смотрите также архив погоды в соседних городах и на ближайших метеорологических станциях:

Погода в Маларгуэ (Аргентина) (148 км)
Погода в Сан-Мартине (Аргентина) (167 км)
Погода в Мендосе (Аргентина) (198 км)
Погода в Сан-Хосе-де-Майпо (Чили) (209 км)
Погода в Сантьяго Агуас Андинас (Чили) (229 км)
Погода в Сан-Луисе (Аргентина) (239 км)
Погода в Сантьяго (Чили) (246 км)
Погода в Талаганте (Чили) (247 км)
Погода на Пасо Лос Либертадорес (Чили) (250 км)
Погода в Пудауэле (Чили) (257 км)

Пояснения к столбцам:

Ветер - указаны скорость ветра в м/с - средняя за 10 мин, порывы в срок и между сроками (в фигурных скобках) и направление, откуда дует ветер: С - северный, СВ - северо-восточный, В - восточный, ЮВ - юго-восточный, Ю - южный, ЮЗ - юго-западный, З - западный, СЗ - северо-западный.
Видимость - горизонтальная дальность видимости в метрах или километрах. При видимости от 1 до 10 км при отсутствии осадков обычно наблюдается дымка, при ухудшении видимости до 1 км и менее - туман. В сухую погоду видимость может ухудшаться дымом, пылью или мглою.
Явления - указаны атмосферные явления, наблюдавшиеся в срок или в последний час перед сроком; фигурными скобками обозначены явления, наблюдавшиеся между сроками (за 1-3 часа до срока); квадратными скобками обозначены град или гололедные отложения с указанием их диаметра в мм.
Облачность - указаны через наклонную черту общая и нижняя облачность в баллах и высота нижней границы облаков в метрах; квадратными скобками обозначены формы облаков: Ci - перистые, Cs - перисто-слоистые, Cc - перисто-кучевые, Ac - высококучевые, As - высокослоистые, Sc - слоисто-кучевые, Ns - слоисто-дождевые, Cu - кучевые, Cb - кучево-дождевые. Подробнее классификацию облаков см. в Атласе облаков (PDF).
T - Температура воздуха - температура, измеренная на высоте 2 м над землей.
Td - Температура точки росы - температура, при понижении до которой содержащийся в воздухе водяной пар достигнет насыщения.
f - Относительная влажность воздуха - влажноcть воздуха, измеренная на высоте 2 м над землей.
Te - Эффективная температура - температура, которую ощущает одетый по сезону человек в тени. Характеристика душности погоды. При расчете учитывается влияние влажности воздуха и скорости ветра на теплоощущения человека.
Tes - Эффективная температура на солнце - температура, которую ощущает человек, с поправкой на солнечный нагрев. Характеристика знойности погоды. Зависит от высоты солнца над горизонтом, облачности и скорости ветра. Ночью, в пасмурную погоду, а также при ветре 12 м/с и более поправка равна нулю.
P - Атмосферное давление - приведенное к уровню моря атмосферное давление.
Po - Атмосферное давление - измеренное на уровне метеостанции атмосферное давление.
Tmin - Минимальная температура - минимум температуры воздуха на высоте 2 м над землей.
Tmax - Максимальная температура - максимум температуры воздуха на высоте 2 м над землей.
R - Количество осадков - Количество выпавших осадков за период времени, мм. При наведении курсора мыши на число - период времени, за который выпало указанное количество осадков.
R24 - Количество осадков - Количество выпавших осадков за 24 часа, мм.
S - Снежный покров - Высота снежного покрова, см. При наведении курсора мыши на число - состояние снежного покрова и степень покрытия местности в баллах.